Weather History for Lee's Summit, MO

Change the Weather History Date:

Sunday, December 30, 2012

  Actual Average (KMKC) Record (KMKC)
Temperature  
Mean Temperature 35 °F -  
Max Temperature 45 °F 38 °F 69 °F (2004)
Min Temperature 25 °F 21 °F 9 °F (2000)
Degree Days  
Heating Degree Days 30    
Moisture  
Dew Point 18 °F    
Average Humidity 52    
Maximum Humidity 72    
Minimum Humidity 36    
Precipitation  
Precipitation 0.00 in - - ()
Sea Level Pressure  
Sea Level Pressure 30.26 in    
Wind  
Wind Speed 10 mph (SSW)    
Max Wind Speed 18 mph    
Max Gust Speed 28 mph    
Visibility 10 miles    
Events      
Averages and records for this station are not official NWS values.
T = Trace of Precipitation, MM = Missing Value Source: NWS Daily Summary

Daily Weather History Graph

Daily Weather History Graph

Search for Another Location

Airport:

Trip Planner

Search our weather history database for the weather conditions in past years. The results will help you decide how hot, cold, wet, or windy it might be!

Date:

Astronomy

Dec. 30, 2012 Rise Set
Actual Time 7:36 AM CST 5:04 PM CST
Civil Twilight 7:06 AM CST 5:34 PM CST
Nautical Twilight 6:32 AM CST 6:08 PM CST
Astronomical Twilight 6:00 AM CST 6:40 PM CST
Moon 7:35 PM CST (12/30) 8:46 AM CST (12/30)
Length of Visible Light 10h 28m
Length of Day
9h 28m
Waning Gibbous, 95% of the Moon is Illuminated
Dec 30
Waning Gibbous
Jan 4
Last Quarter
Jan 11
New
Jan 18
First Quarter
Jan 26
Full

Hourly Weather History & Observations

Time (CST) Temp. Windchill Dew Point Humidity Pressure Visibility Wind Dir Wind Speed Gust Speed Precip Events Conditions
12:53 AM 25.0 °F 17.1 °F 17.1 °F 72% 30.35 in 10.0 mi SW 6.9 mph - N/A   Clear
1:53 AM 27.0 °F 18.7 °F 17.1 °F 66% 30.36 in 10.0 mi SSW 8.1 mph - N/A   Clear
2:53 AM 26.1 °F 18.4 °F 16.0 °F 66% 30.35 in 10.0 mi SSW 6.9 mph - N/A   Clear
3:53 AM 25.0 °F 16.3 °F 16.0 °F 69% 30.35 in 10.0 mi SSW 8.1 mph - N/A   Clear
4:53 AM 26.1 °F 19.4 °F 16.0 °F 66% 30.35 in 10.0 mi SSW 5.8 mph - N/A   Clear
5:53 AM 26.1 °F 18.4 °F 16.0 °F 66% 30.35 in 10.0 mi SSW 6.9 mph - N/A   Clear
7:53 AM 26.1 °F 16.8 °F 16.0 °F 66% 30.35 in 10.0 mi SSW 9.2 mph - N/A   Clear
8:53 AM 28.0 °F 20.0 °F 18.0 °F 66% 30.35 in 10.0 mi SSW 8.1 mph - N/A   Clear
9:53 AM 33.1 °F 26.1 °F 19.9 °F 59% 30.35 in 10.0 mi SSW 8.1 mph - N/A   Clear
10:53 AM 37.9 °F 30.0 °F 19.0 °F 47% 30.34 in 10.0 mi SSW 12.7 mph - N/A   Clear
11:53 AM 42.1 °F 35.7 °F 19.9 °F 41% 30.29 in 10.0 mi South 11.5 mph - N/A   Clear
12:53 PM 43.0 °F 35.7 °F 19.9 °F 40% 30.26 in 10.0 mi SSW 15.0 mph 23.0 mph N/A   Clear
1:53 PM 44.1 °F 37.4 °F 19.9 °F 38% 30.22 in 10.0 mi SSW 13.8 mph 26.5 mph N/A   Clear
2:53 PM 45.0 °F 38.2 °F 19.0 °F 36% 30.19 in 10.0 mi SSW 15.0 mph 26.5 mph N/A   Clear
3:53 PM 43.0 °F 34.8 °F 19.9 °F 40% 30.19 in 10.0 mi South 18.4 mph 23.0 mph N/A   Clear
4:53 PM 42.1 °F 33.9 °F 19.0 °F 40% 30.18 in 10.0 mi South 17.3 mph 27.6 mph N/A   Clear
5:53 PM 41.0 °F 33.5 °F 18.0 °F 40% 30.16 in 10.0 mi South 13.8 mph 24.2 mph N/A   Clear
6:53 PM 39.9 °F 31.8 °F 17.1 °F 40% 30.17 in 10.0 mi South 15.0 mph 26.5 mph N/A   Clear
7:53 PM 39.0 °F 30.3 °F 17.1 °F 41% 30.17 in 10.0 mi SSW 16.1 mph 24.2 mph N/A   Clear
8:53 PM 37.9 °F 30.9 °F 18.0 °F 45% 30.16 in 10.0 mi SSW 10.4 mph 19.6 mph N/A   Clear
9:53 PM 37.9 °F 29.2 °F 19.0 °F 47% 30.14 in 10.0 mi SSW 15.0 mph 20.7 mph N/A   Clear
10:53 PM 37.0 °F 28.5 °F 19.0 °F 48% 30.15 in 10.0 mi SSW 13.8 mph - N/A   Clear
11:53 PM 37.0 °F 28.9 °F 19.0 °F 48% 30.16 in 10.0 mi SW 12.7 mph 20.7 mph N/A   Partly Cloudy